Lapse_Rate
1.1 1.1 1.1 0.9 0.6 0.4 0.2 0.1 -0.1 -0.2 -0.1 -0.1 -0.3 -0.4 -0.6 -0.7 -0.8 -0.7 -0.8 -0.6 -0.3 -0.1 -0.1 -0.0 0.5 0.9 4.4 8.0 7.6 6.2 4.5 5.1 6.0 6.6 6.6 8.0 7.6 7.3 6.5 6.8 7.0 6.5 6.8 7.2 7.4 7.4 7.4
1.4 1.3 1.1 0.9 0.7 0.2 0.1 -0.1 -0.2 -0.3 -0.1 -0.3 -0.3 -0.5 -0.7 -0.9 -0.9 -0.9 -0.9 -0.6 -0.3 -0.1 0.1 0.4 0.9 1.5 7.3 6.8 6.5 6.4 5.8 6.7 6.6 7.7 7.5 8.5 7.9 7.9 7.2 6.9 6.6 7.0 7.0 7.0 7.3 7.2 7.4
1.7 1.2 1.1 1.0 0.7 0.4 0.2 -0.1 -0.3 -0.2 -0.1 -0.3 -0.5 -0.6 -0.9 -1.0 -0.9 -0.9 -0.9 -0.5 -0.3 0.1 0.4 0.9 1.5 5.6 8.2 7.4 7.1 6.7 7.0 6.6 6.6 6.8 8.3 6.5 7.1 7.8 7.6 6.7 7.6 7.2 6.5 6.5 6.8 7.1 6.8
1.8 1.5 1.1 0.9 0.8 0.6 0.4 -0.0 -0.2 -0.1 0.0 -0.3 -0.7 -0.9 -0.9 -0.9 -1.0 -1.0 -0.9 -0.6 0.0 0.6 1.0 1.4 2.0 7.0 7.6 7.0 7.2 7.7 8.3 8.5 7.9 7.4 6.8 6.3 7.4 8.1 7.5 7.8 7.0 6.5 6.5 6.5 6.5 6.8 7.0
2.0 1.5 1.1 0.8 0.8 0.8 0.6 0.4 0.0 -0.1 -0.1 -0.4 -0.7 -0.9 -1.1 -1.1 -1.1 -1.1 -0.8 0.1 1.1 1.5 1.7 2.5 6.4 7.9 7.3 6.8 8.3 7.4 7.5 7.8 7.5 7.6 6.9 7.1 7.9 7.5 7.4 6.5 6.5 6.5 6.5 6.5 6.5 6.9 6.5
2.1 1.7 1.2 0.8 0.6 0.7 0.6 0.4 0.2 0.1 -0.2 -0.5 -0.8 -1.2 -1.4 -1.3 -1.1 -0.8 -0.6 0.8 2.3 2.3 4.4 6.0 7.1 7.7 7.9 7.8 7.5 7.0 8.0 7.2 8.2 7.9 7.8 7.8 7.5 6.5 6.5 6.5 6.5 6.5 6.5 6.5 6.5 6.5 6.5
2.4 2.0 1.6 1.1 0.8 0.6 0.4 0.2 -0.1 -0.2 -0.3 -0.5 -0.8 -1.3 -1.4 -1.4 -1.2 -0.6 1.4 5.3 7.5 8.0 6.7 7.5 7.6 7.6 8.0 8.3 7.5 8.2 7.3 8.0 8.1 7.7 6.5 7.1 6.5 6.5 6.5 6.5 6.5 6.5 6.5 6.5 6.5 6.5 6.5
2.8 2.2 1.8 1.4 1.0 0.8 0.6 0.2 -0.1 -0.3 -0.4 -0.6 -0.9 -1.2 -1.2 -1.2 -1.2 0.2 3.1 6.2 3.0 4.4 7.1 7.4 7.3 7.9 7.4 7.0 7.5 8.2 7.9 7.5 7.1 6.5 6.7 6.5 6.5 6.5 6.5 6.5 6.5 6.5 6.5 6.5 6.5 6.5 6.5
2.8 2.4 2.3 1.7 1.2 0.9 0.6 0.3 0.1 0.0 -0.4 -0.8 -1.0 -1.1 -1.2 -1.1 0.3 3.0 3.8 2.4 2.0 3.1 7.0 7.4 7.3 7.9 7.6 7.8 7.4 7.5 7.9 7.7 6.7 6.5 6.5 6.5 6.5 6.7 6.5 6.5 6.5 6.5 6.5 6.5 6.5 6.5 6.5
2.9 2.7 2.4 2.0 1.7 1.1 0.5 0.2 0.1 0.0 -0.2 -0.6 -0.8 -1.0 -1.0 -0.7 2.8 4.1 3.9 2.3 2.2 3.4 6.5 6.5 6.9 7.4 8.0 7.7 6.9 6.9 6.7 7.1 6.8 6.5 6.5 6.5 6.7 6.5 6.5 6.5 6.5 6.5 6.5 6.5 6.5 6.5 6.5
3.6 2.9 2.5 2.2 1.7 1.3 0.8 0.5 0.1 -0.2 -0.5 -0.8 -0.9 -0.8 -0.7 0.2 4.3 5.2 2.6 2.2 2.6 4.5 6.5 6.5 6.9 7.9 7.6 7.2 7.3 7.3 6.1 7.7 6.5 6.5 6.5 6.5 6.5 6.5 6.5 6.5 6.5 6.5 6.5 6.5 6.5 6.5 6.5
3.7 3.5 3.1 2.5 2.0 1.5 0.8 0.6 0.3 0.1 -0.3 -0.8 -1.0 -0.8 0.0 3.2 4.3 1.6 1.6 2.6 4.4 6.5 6.5 6.5 6.9 6.6 6.6 7.0 7.0 7.6 7.5 7.8 7.3 6.5 6.5 6.5 7.1 6.6 6.5 6.5 6.5 6.5 6.5 6.5 6.5 6.5 6.5
4.0 3.8 3.5 3.0 2.4 1.6 1.1 0.6 0.2 0.1 -0.0 -0.5 -0.8 -0.9 2.1 2.2 4.4 0.7 1.5 4.7 6.5 6.5 6.5 6.5 6.5 6.5 6.5 6.5 6.5 6.6 6.5 6.5 6.5 6.5 6.5 6.5 6.5 6.6 6.8 6.5 6.5 6.5 6.5 6.5 6.5 6.5 6.5
4.0 4.1 3.9 3.5 3.0 2.3 1.5 0.8 0.3 0.3 0.0 -0.3 -0.6 0.7 0.8 1.4 1.3 1.5 3.6 6.6 6.5 6.5 6.5 6.5 6.5 6.5 6.5 6.5 6.5 6.5 6.5 6.5 6.5 6.5 6.5 6.5 6.5 6.5 6.5 6.5 6.5 6.5 6.5 6.5 6.5 6.5 6.5
3.7 3.7 3.8 3.7 3.5 2.8 2.2 1.5 0.9 0.3 -0.0 -0.1 -0.1 3.5 3.7 2.5 1.2 2.3 7.0 6.5 6.5 6.5 6.5 6.5 6.5 6.5 6.5 6.5 6.5 6.5 6.5 6.5 6.5 6.5 6.5 6.5 6.5 6.5 6.5 6.6 6.5 6.5 6.5 6.5 6.5 6.5 6.5
3.9 3.8 3.7 3.6 3.7 3.4 2.7 2.0 1.3 0.7 0.4 0.1 5.2 5.4 5.1 1.7 1.5 4.0 6.7 6.5 6.5 6.7 6.7 6.5 6.5 6.5 6.5 6.5 6.5 6.5 6.5 6.5 6.5 6.6 6.9 6.5 6.5 6.5 6.5 6.7 6.6 6.5 6.5 6.5 6.5 6.5 6.5
3.8 4.1 3.7 3.7 3.4 3.3 3.0 2.5 2.0 1.2 0.9 0.6 4.6 7.2 3.9 2.2 2.7 7.3 6.5 6.5 6.5 7.2 7.1 6.5 6.5 6.5 6.5 6.5 6.5 6.5 6.5 6.5 6.5 6.5 6.8 6.5 6.5 6.5 6.5 6.5 6.5 6.5 6.5 6.5 6.5 6.5 6.5
3.9 4.5 4.1 3.7 3.4 3.2 2.8 2.3 2.5 2.1 1.7 1.2 5.6 6.6 3.8 3.9 6.9 6.9 6.5 6.5 5.9 6.7 7.3 6.7 6.6 6.5 6.5 6.5 6.5 6.5 6.5 6.5 7.1 6.9 6.5 6.5 6.5 6.5 6.5 6.5 6.5 6.5 6.5 6.5 6.5 6.5 6.5
3.4 3.0 4.8 4.4 3.8 3.0 2.6 2.2 2.0 2.7 2.4 2.9 5.8 7.5 5.0 5.1 6.5 6.5 6.7 6.5 6.9 6.6 6.5 6.5 6.5 6.5 6.5 6.5 6.5 6.5 6.5 7.0 7.2 6.7 6.5 6.5 6.5 6.5 6.5 6.5 6.5 6.5 6.5 6.5 6.5 6.5 6.5
3.6 2.7 4.2 4.4 4.1 3.2 2.5 1.8 1.2 1.2 2.9 2.5 6.2 6.5 7.5 7.6 7.6 6.6 6.5 6.5 6.5 7.1 6.8 6.9 6.6 6.8 6.5 6.5 6.5 6.5 6.5 6.6 7.2 7.0 6.9 6.9 6.5 6.5 6.5 6.5 6.5 6.5 6.5 6.5 6.5 6.5 6.5
4.2 4.4 4.2 3.5 4.7 3.9 2.9 2.0 2.4 1.7 3.5 3.6 6.2 6.4 6.1 6.5 6.7 6.7 6.6 6.5 6.5 6.5 6.9 7.1 6.5 6.5 6.5 6.5 6.5 6.5 6.5 6.5 6.9 7.1 6.9 6.5 6.5 6.5 6.5 6.5 6.5 6.5 6.5 6.5 6.5 6.5 6.5
4.3 4.6 4.9 4.4 4.6 4.0 2.9 2.8 2.2 1.3 2.7 5.0 6.8 7.2 7.3 7.1 7.2 6.6 6.5 6.5 6.5 6.5 6.5 6.5 6.5 6.5 6.5 6.5 6.5 6.5 6.5 6.5 6.5 6.7 6.5 6.6 6.5 6.5 6.5 6.5 6.5 6.5 6.5 6.5 6.5 6.5 6.5
4.6 4.5 4.6 4.9 5.1 4.4 3.6 2.6 2.0 1.3 2.2 4.2 3.7 3.5 5.5 6.7 6.7 6.5 6.5 6.5 6.5 6.4 6.9 7.0 6.7 6.5 6.5 6.6 7.1 7.3 7.3 7.2 6.9 6.5 6.5 6.5 6.5 6.5 6.5 6.5 6.5 6.5 6.5 6.5 6.5 6.5 6.5
5.1 4.6 4.7 4.8 4.8 4.9 4.0 3.2 1.8 2.0 2.3 2.6 4.7 4.7 5.3 6.5 6.5 6.5 6.5 6.6 6.5 6.7 6.5 7.0 7.2 6.6 7.0 7.7 7.9 7.7 7.4 7.1 7.0 6.8 7.0 6.5 6.5 6.5 6.5 6.5 6.5 6.5 6.5 6.5 6.5 6.5 6.5
5.4 4.8 4.6 5.0 4.6 4.2 4.4 3.2 2.2 1.3 0.9 1.3 1.4 3.5 5.2 6.5 6.2 6.7 6.7 6.7 7.1 7.2 6.8 6.9 7.3 7.7 7.9 7.6 6.5 6.5 6.5 6.5 6.5 6.5 6.5 6.7 6.5 6.5 6.5 6.5 6.5 6.5 6.5 6.5 6.5 6.5 6.5
5.2 4.7 4.6 4.7 4.4 4.2 4.1 3.1 2.2 2.2 2.6 0.7 0.9 2.4 5.2 6.2 6.4 5.5 6.6 7.0 6.5 6.5 6.6 7.0 7.7 8.5 7.9 6.7 6.5 6.5 6.5 6.5 6.5 6.5 6.7 6.5 6.5 6.5 6.5 6.5 6.5 6.5 6.5 7.2 6.8 6.5 6.9
5.2 4.5 4.3 4.5 4.3 4.3 3.9 3.7 2.9 3.1 2.1 1.6 -0.0 1.1 3.7 4.1 4.2 4.8 6.5 6.5 7.3 7.0 6.5 7.0 7.3 7.2 7.6 6.5 6.5 6.5 6.5 6.5 6.5 6.5 6.5 6.5 6.5 6.5 6.5 6.5 6.5 6.5 7.0 7.4 6.5 6.5 7.2
4.9 4.2 3.8 3.9 4.3 4.3 3.6 3.8 3.5 3.8 2.7 2.0 0.7 1.8 4.2 3.4 4.6 4.2 4.2 6.8 6.9 7.2 6.5 7.1 6.8 6.9 6.7 6.5 6.5 6.5 6.5 6.5 6.5 6.5 6.5 6.5 6.5 6.5 6.5 6.5 6.5 7.2 6.8 6.5 6.8 7.4 7.5
4.7 4.1 4.0 3.7 4.2 4.4 4.6 4.7 4.8 3.7 2.7 2.2 2.1 3.2 3.1 2.0 4.9 5.7 4.5 4.1 3.7 4.3 7.3 7.5 7.0 6.9 7.0 6.5 6.5 6.5 6.5 6.5 6.5 6.5 6.5 6.5 6.5 6.5 6.5 6.5 6.9 7.5 7.2 7.7 7.8 7.5 7.7
Wind_Speed
4 5 6 7 7 8 9 9 10 11 11 12 13 13 13 13 13 13 12 12 10 9 8 7 8 9 4 3 4 8 14 11 5 4 5 4 2 1 1 3 3 7 7 7 7 10 10
2 3 5 6 7 8 9 10 10 11 11 12 13 13 13 14 14 13 12 11 10 8 7 7 9 8 4 2 4 9 9 7 8 5 4 4 3 2 4 3 3 4 8 9 7 7 10
2 3 5 6 7 8 9 9 10 11 11 11 12 13 14 13 14 13 13 10 9 7 6 7 8 3 7 6 3 8 5 5 6 6 2 5 4 3 1 5 4 6 6 6 7 9 4
2 3 3 6 7 8 9 9 9 10 11 12 13 13 14 14 15 14 13 9 4 3 5 6 7 4 4 2 4 7 5 2 4 4 4 3 3 4 2 5 4 5 3 6 8 10 4
4 4 3 5 6 7 8 9 9 10 11 12 13 14 15 15 14 14 12 5 2 2 3 4 3 4 4 1 1 6 6 3 2 2 2 0 1 2 4 5 6 6 6 10 6 11 7
6 5 4 4 5 6 7 9 10 11 12 13 13 14 15 16 16 13 11 4 2 3 3 2 1 3 2 3 3 5 3 3 2 1 2 3 3 4 5 6 4 4 7 5 8 10 11
9 7 6 4 5 6 7 8 9 11 12 14 14 15 15 16 16 13 4 3 3 3 9 6 4 2 2 2 3 4 4 3 2 4 3 1 5 6 3 3 5 6 7 9 2 4 8
12 10 9 7 6 6 7 8 9 10 11 13 15 16 16 15 14 8 6 1 3 3 6 4 3 3 1 2 2 6 8 3 2 2 3 4 5 3 1 1 4 6 8 9 2 3 5
14 12 11 9 7 7 7 7 8 9 10 12 14 15 16 17 7 3 6 4 3 4 0 3 2 2 2 4 3 5 8 3 2 2 2 5 6 3 2 2 4 6 8 8 7 2 8
16 14 13 10 9 7 7 8 9 9 10 12 14 14 16 16 0 1 3 2 2 2 4 3 2 2 2 0 1 2 5 3 1 3 3 4 4 1 3 5 4 8 5 3 6 5 6
18 17 15 12 10 9 7 7 9 10 11 12 14 14 12 10 2 1 2 1 2 2 1 3 2 2 1 2 2 2 0 2 2 1 2 1 1 2 5 3 2 2 1 3 6 10 10
19 20 17 15 13 11 9 8 8 10 11 13 14 13 9 2 3 2 1 1 2 3 5 4 2 2 2 2 1 1 1 2 1 2 3 1 1 2 2 1 2 2 4 8 5 7 7
21 20 18 16 14 12 10 8 7 8 9 10 10 7 5 2 2 0 1 2 2 3 1 4 2 2 2 2 2 1 1 4 3 1 5 4 4 2 2 4 3 4 5 3 5 4 6
21 20 20 18 16 14 11 8 6 7 8 9 6 1 5 4 2 2 3 3 4 2 2 2 2 2 3 2 2 2 2 4 3 3 3 4 4 5 3 2 3 7 5 5 7 8 13
25 22 20 19 17 15 13 10 7 6 7 8 4 1 1 2 2 2 3 3 2 1 3 5 3 4 4 3 2 3 4 2 4 1 4 2 2 3 3 2 2 4 6 4 6 13 12
27 25 22 21 19 17 14 11 8 6 6 6 2 2 2 3 2 3 3 3 2 2 3 1 4 3 4 5 4 3 5 2 2 2 3 4 5 2 2 2 2 4 4 4 3 6 10
23 24 25 24 22 19 16 13 9 5 5 3 2 3 2 1 1 3 4 2 3 2 1 3 2 3 4 2 5 3 2 3 1 3 0 2 1 4 1 6 3 4 4 4 3 4 5
13 20 23 23 24 21 18 14 9 5 3 2 2 3 2 2 3 2 4 1 2 3 2 2 2 3 3 2 4 4 3 2 2 4 4 3 2 6 5 3 2 2 3 4 6 10 11
2 8 18 20 23 23 20 16 11 5 4 1 2 0 2 2 4 5 2 3 2 4 4 4 4 3 2 4 4 5 4 3 3 4 2 3 5 4 5 2 2 4 5 8 4 2 16
0 4 1 17 24 24 22 20 15 11 9 2 2 3 2 3 1 4 3 3 4 0 3 2 2 3 4 5 6 2 6 3 2 3 1 1 3 9 12 14 2 7 8 9 10 7 16
2 3 2 2 23 25 23 20 16 11 9 2 3 2 2 4 6 7 4 3 4 4 2 4 3 10 6 4 4 5 5 4 3 4 3 3 6 9 12 13 10 12 13 14 17 19 14
2 5 7 6 16 25 25 23 18 18 8 2 2 3 2 2 4 8 4 6 8 3 6 5 6 3 9 6 4 1 5 5 4 7 6 3 3 2 6 12 8 12 15 17 18 18 20
1 4 7 9 11 23 26 24 23 23 16 2 1 1 1 4 6 6 5 5 6 8 2 2 3 4 6 3 3 3 4 3 1 3 9 4 3 2 6 2 8 13 10 8 11 1 4
2 2 7 10 11 11 24 25 26 25 12 1 1 1 2 3 6 6 5 5 6 7 2 3 2 3 4 8 9 6 5 2 2 1 3 4 6 3 4 4 6 4 4 4 4 1 1
7 3 4 10 11 15 24 25 26 27 19 2 1 2 3 3 2 4 8 5 7 5 3 4 2 3 10 5 2 3 3 3 3 0 3 2 6 3 4 6 8 4 2 2 2 4 3
8 6 8 11 11 13 23 26 25 24 22 4 2 1 2 3 4 3 6 8 5 6 5 3 5 3 3 3 3 4 5 1 4 4 1 3 3 5 3 5 5 5 6 4 3 5 6
9 9 12 14 13 10 21 24 24 25 22 6 2 1 3 2 1 2 2 2 3 4 3 5 7 5 1 4 4 4 5 1 4 5 6 4 5 11 9 6 2 7 8 5 2 2 8
12 16 16 17 16 11 23 22 22 23 20 5 2 1 3 3 2 3 3 1 2 3 4 7 5 2 3 5 4 4 4 4 3 1 4 7 7 5 5 6 8 10 7 4 4 3 1
16 15 12 10 14 22 24 19 18 21 17 7 2 3 8 6 3 3 6 7 3 3 1 7 1 3 4 4 1 2 3 2 3 3 2 5 3 1 5 0 4 12 4 4 1 1 1
Wind_Direction
44 18 9 13 14 13 12 8 6 7 4 5 6 1 356 354 356 352 350 342 336 332 329 326 324 326 284 176 53 354 339 340 328 332 10 348 310 308 195 97 89 103 115 94 90 100 93
20 16 7 5 6 12 9 6 3 3 0 5 3 356 354 352 351 344 339 333 322 322 324 328 334 324 261 216 339 348 343 355 15 359 25 6 28 350 96 68 343 109 131 125 133 114 130
354 2 360 358 3 6 5 6 2 358 357 359 359 354 349 347 343 335 329 323 313 312 319 331 338 308 60 64 354 355 4 13 8 14 41 36 4 314 137 125 118 139 133 145 170 162 133
293 320 352 357 355 353 356 1 360 355 352 354 354 350 345 342 337 331 327 316 295 292 316 322 317 273 70 33 346 14 358 36 37 44 59 20 14 97 9 121 144 189 220 207 154 180 138
258 296 328 343 346 341 351 350 354 351 349 352 351 345 343 339 334 326 322 291 247 271 286 305 260 288 96 222 347 350 4 1 353 54 57 337 318 101 157 206 190 198 253 217 159 196 155
234 258 281 312 328 334 342 344 350 347 346 347 346 345 342 337 329 321 319 269 312 220 233 250 153 173 105 13 347 326 353 338 353 166 179 211 207 208 205 214 241 258 231 218 239 184 208
233 248 261 270 296 318 331 342 348 346 344 343 342 344 340 335 329 328 294 220 207 154 43 51 27 55 59 9 276 358 357 294 235 235 227 155 233 215 209 270 321 294 275 262 160 143 233
231 244 251 257 275 303 326 336 341 344 343 341 342 341 336 331 324 333 281 28 32 14 99 60 73 92 45 331 269 41 342 278 239 215 196 201 237 62 124 205 249 248 255 260 139 166 247
216 232 240 249 268 288 309 320 328 335 340 341 341 340 337 332 318 329 73 73 348 322 221 83 45 29 13 321 34 10 350 325 328 216 231 287 57 117 224 202 254 252 273 293 277 306 243
225 228 233 243 253 270 296 311 319 329 337 340 340 341 341 340 42 48 51 33 334 320 211 117 149 102 187 305 165 18 16 349 214 319 321 318 74 229 247 263 279 281 21 285 271 264 271
229 225 230 236 241 252 268 292 314 328 335 340 341 340 340 10 95 60 66 321 297 241 320 118 118 24 352 290 46 116 15 218 298 355 266 84 213 218 248 288 261 359 344 256 259 260 281
228 225 224 225 233 242 258 282 309 326 337 342 342 338 324 252 81 64 345 268 249 222 249 160 155 168 206 197 161 316 189 143 54 235 233 300 140 251 322 124 246 102 253 236 255 258 256
226 226 223 221 226 231 241 257 293 316 328 337 343 346 8 326 88 7 222 210 243 239 62 157 176 201 276 184 187 305 245 195 255 236 217 175 204 118 260 241 187 232 269 285 224 203 250
225 224 221 218 221 228 235 249 272 305 320 329 328 28 49 48 0 284 226 219 245 27 181 94 130 161 237 178 178 200 217 228 215 242 281 236 233 187 141 259 342 205 271 262 289 286 297
224 223 219 216 218 224 228 238 251 284 311 323 302 153 169 52 331 261 243 225 276 156 111 161 157 221 191 198 267 233 226 319 43 263 256 274 205 123 39 355 317 145 218 12 291 275 279
218 214 214 211 215 220 223 229 246 270 301 320 268 232 179 345 312 233 242 256 183 62 116 184 241 214 243 173 220 213 185 67 116 10 346 31 280 26 79 257 207 273 349 250 214 290 285
218 209 208 209 206 213 213 221 231 254 296 317 251 244 92 347 241 223 221 196 140 105 300 242 277 248 249 231 249 248 6 98 31 125 306 312 259 116 203 202 289 182 221 225 300 266 262
220 215 216 210 204 204 207 210 219 233 276 256 262 239 37 276 200 221 228 130 88 148 168 209 284 281 258 190 224 234 238 76 151 177 186 160 260 259 257 94 12 294 281 264 242 259 246
145 152 222 216 204 201 202 197 201 209 225 321 245 108 128 264 232 213 128 154 183 162 185 178 198 244 230 215 235 214 196 147 184 205 203 164 210 278 180 188 189 234 213 247 283 294 250
316 344 126 212 203 200 198 196 187 191 205 216 239 197 147 193 299 300 197 212 186 186 154 193 164 190 198 225 235 219 195 143 173 195 97 195 257 251 265 295 330 239 216 230 226 244 266
325 313 298 255 208 203 194 193 185 181 204 222 213 225 331 179 209 196 200 130 185 203 225 210 199 228 206 235 232 227 197 158 181 172 188 244 253 257 272 283 278 269 265 249 234 248 261
64 343 318 316 222 201 191 188 183 162 170 271 223 188 187 139 143 166 177 198 209 167 169 208 232 196 211 232 253 241 183 201 197 181 199 190 271 285 268 256 272 269 259 252 255 267 267
204 360 345 318 321 205 194 185 180 170 162 201 290 315 288 153 171 192 194 188 196 141 159 8 232 194 215 244 90 76 50 50 357 189 200 199 244 245 273 26 307 274 271 260 242 94 306
243 296 354 317 289 275 198 188 182 177 178 38 146 138 120 227 202 209 168 165 170 184 153 143 185 200 112 118 109 100 86 84 177 161 299 218 214 257 290 312 254 77 87 64 34 77 125
245 281 302 310 294 311 208 186 183 179 173 115 93 104 171 222 164 167 160 145 126 124 120 149 92 42 147 147 192 203 193 222 179 282 206 261 219 255 257 244 293 168 167 148 171 164 145
242 266 277 289 287 302 204 184 181 183 176 115 86 300 179 142 209 11 151 184 164 174 147 108 85 124 148 206 192 235 244 222 188 165 176 182 262 224 179 263 271 82 130 92 81 259 159
262 270 279 273 263 284 187 176 178 179 169 140 123 118 103 125 51 43 163 178 157 175 128 136 155 152 256 187 209 219 237 345 225 204 173 169 206 219 230 253 254 145 141 139 175 97 161
283 287 277 261 242 214 169 173 175 170 159 108 105 245 128 97 58 18 20 129 117 201 171 132 127 180 167 203 220 204 244 189 215 148 190 182 188 196 213 229 249 150 136 222 92 134 235
295 295 282 250 188 161 156 173 165 151 151 127 112 85 68 75 91 74 88 64 38 3 94 178 42 136 153 182 240 217 210 180 234 227 197 219 249 262 224 199 102 173 64 105 101 341 257